Tracking 32139 objects as of 18-Nov-2025
HD Live streaming from Space Station
objects crossing your sky now

USA 414

Track USA 414 now!
10-day predictions


NORAD ID: 61035
Int'l Code: 2024-160Q
Perigee: 582.2 km
Apogee: 586.2 km
Inclination: 70.0 °
Period: 96.2 minutes
Semi major axis: 6955 km
RCS: Unknown
Launch date: September 6, 2024
Source: United States (US)
Launch site: AIR FORCE WESTERN TEST RANGE (AFWTR)
Your satellite tracking list
Your tracking list is empty




NASA's NSSDC Master Catalog

Two Line Element Set (TLE):
1 61035U 24160Q   25320.72571275 0.00000000  00000-0  00000-0 0    09
2 61035  69.9870 185.6354 0002855 192.6559 167.3441 14.96714432    02
Source of the keplerian elements: McCants